Simultaneous Nadir Overpasses (SNOs) Predictions

Prediction of SNOs between NOAA-20 and METOP-C Satellite Orbit:

Table of predicted SNOs for the next 14.0 days since TLE Epoch: 9/22/2022
Index Date (NOAA-20) Time (NOAA-20) Lat,Lon (NOAA-20) SZA (NOAA-20 ) Date (METOP-C) Time (METOP-C) Lat,Lon (METOP-C) SZA (METOP-C ) Distance(km) Time Diff (sec)
1 10/05/2022 19:52:46 73.38,-127.74 78.37 10/05/2022 19:53:54 73.35,-125.49 78.26 71.51 68
2 10/05/2022 20:43:29 -73.33, 39.70 101.68 10/05/2022 20:44:38 -73.27, 41.66 101.80 62.85 69
3 10/05/2022 21:34:10 73.09,-152.45 78.08 10/05/2022 21:35:22 73.02,-151.55 77.98 30.33 72
4 10/05/2022 22:24:53 -73.03, 14.98 101.97 10/05/2022 22:26:05 -72.99, 15.72 102.04 24.53 72
5 10/05/2022 23:15:35 72.84,-177.30 77.84 10/05/2022 23:16:47 72.84,-177.26 77.83 1.29 72
6 10/06/2022 00:06:19 -72.84, -9.98 102.15 10/06/2022 00:07:30 -72.82, -9.99 102.18 2.04 71
7 10/06/2022 00:57:05 72.84, 157.32 77.87 10/06/2022 00:58:09 72.82, 157.35 77.84 3.14 64
8 10/06/2022 01:47:49 -72.84, -35.36 102.12 10/06/2022 01:48:51 -72.84, -35.28 102.13 2.86 62
9 10/06/2022 02:38:34 72.80, 132.04 77.85 10/06/2022 02:39:31 72.79, 131.95 77.84 2.86 57



Historial Predications of SNOs between NOAA-20 and METOP-C
